Stations météo

Publicité
Paris-Montsouris, France (7156): Température de l'air & dewpoint: 19.07.2017 10:00:00 - 25.07.2017 10:00:00 (CEST)Paris-Montsouris, France (7156): Température de l'air 5cm: 19.07.2017 10:00:00 - 25.07.2017 10:00:00 (CEST)Paris-Montsouris, France (7156): Température de l'air -20cm & Température de l'air -100cm: 19.07.2017 10:00:00 - 25.07.2017 10:00:00 (CEST)Paris-Montsouris, France (7156): Vitesse du vent & gusts: 19.07.2017 10:00:00 - 25.07.2017 10:00:00 (CEST)Paris-Montsouris, France (7156): Direction du vent: 19.07.2017 10:00:00 - 25.07.2017 10:00:00 (CEST)Paris-Montsouris, France (7156): reduced air pressure: 19.07.2017 10:00:00 - 25.07.2017 10:00:00 (CEST)Paris-Montsouris, France (7156): visibility: 19.07.2017 10:00:00 - 25.07.2017 10:00:00 (CEST)Paris-Montsouris, France (7156): Ensoleillement: 19.07.2017 10:00:00 - 25.07.2017 10:00:00 (CEST)Paris-Montsouris, France (7156): Quantités de précipitations: 19.07.2017 10:00:00 - 25.07.2017 10:00:00 (CEST)
Date & Time tt [°C] td [°C] tt 5cm [°C] tt -20cm [°C] tt -100cm [°C] ff [km/h] ff [knt] fx [km/h] fx [knt] dd ppp [hPa] vv [km] sd [min] rr [mm]
25.07.2017 10:00:00 16,9 13,0 15,3 19,5 19,1 17 9 32 17 NNW 1015,6 20 0 0,0
25.07.2017 09:00:00 15,9 13,7 15,0 19,6 19,1 11 6 32 17 NNW 1015,8 16 0 0,0
25.07.2017 08:00:00 16,2 13,5 15,8 19,6 19,1 12 6 33 18 NW 1015,2 20 0 0,0
25.07.2017 07:00:00 16,1 13,6 15,7 19,6 19,1 9 5 25 14 NNW 1015,3 20 0 0,0
25.07.2017 06:00:00 16,1 13,4 15,6 19,7 19,1 11 6 26 14 NNW 1015,3 20 0 0,0
25.07.2017 05:00:00 16,2 13,5 15,8 19,7 19,1 10 5 27 15 NW 1015,4 20 0 0,0
25.07.2017 04:00:00 16,2 13,3 15,8 19,8 19,1 8 5 29 15 NW 1015,7 20 0 0,0
25.07.2017 03:00:00 16,2 13,1 15,7 19,8 19,1 17 9 35 19 NNW 1015,9 20 0 0,0
25.07.2017 02:00:00 16,2 13,1 14,9 19,9 19,2 14 8 35 19 NNW 1016,4 20 0 0,0
25.07.2017 01:00:00 16,0 13,7 14,8 19,9 19,1 11 6 32 18 NW 1016,4 20 0 0,2
25.07.2017 00:00:00 16,3 13,4 15,8 20,0 19,2 13 7 36 19 NW 1016,5 20 0 0,0
24.07.2017 23:00:00 16,7 13,4 16,0 20,0 19,2 12 6 34 18 NW 1016,4 20 0 0,0
24.07.2017 22:00:00 16,7 13,4 16,1 20,1 19,2 11 6 38 21 NW 1016,0 20 0 0,0
24.07.2017 21:00:00 16,8 13,5 15,5 20,1 19,2 17 9 41 22 NW 1015,5 20 15 0,0
24.07.2017 20:00:00 16,6 14,1 15,5 20,1 19,1 20 11 46 25 NNW 1015,0 14 0 0,0
24.07.2017 19:00:00 18,1 13,6 18,1 20,1 19,2 15 8 62 34 NNW 1014,4 20 0 0,0
24.07.2017 18:00:00 19,3 13,0 19,3 20,0 19,2 21 12 47 26 NW 1013,9 20 6 0,0
24.07.2017 17:00:00 20,2 12,9 19,9 19,9 19,2 23 12 52 28 NW 1013,4 20 23 0,0
24.07.2017 16:00:00 20,8 14,2 17,9 19,9 19,2 13 7 46 25 WNW 1013,0 20 34 0,2
24.07.2017 15:00:00 18,8 13,4 16,7 19,8 19,2 14 8 43 23 NW 1013,0 20 7 0,0
24.07.2017 14:00:00 17,8 13,9 17,9 19,8 19,2 13 7 44 24 W 1013,2 19 1 0,0
24.07.2017 13:00:00 17,5 12,8 17,9 19,8 19,2 15 8 36 20 W 1013,1 20 4 0,0
24.07.2017 12:00:00 16,8 13,1 16,6 19,8 19,2 11 6 34 18 W 1013,1 20 0 0,0
24.07.2017 11:00:00 16,2 12,9 16,0 19,8 19,2 13 7 29 15 W 1013,2 20 0 0,0
24.07.2017 10:00:00 15,6 12,7 15,2 19,8 19,2 10 6 32 18 W 1013,2 20 0 0,0
24.07.2017 09:00:00 14,6 12,5 - - - 8 4 34 18 W 1013,2 19 - 0,0
24.07.2017 08:00:00 14,0 12,6 13,6 20,0 19,2 12 7 30 16 W 1012,9 12 0 0,0
24.07.2017 07:00:00 14,1 12,7 12,7 20,1 19,2 10 5 26 14 W 1012,7 19 0 0,0
24.07.2017 06:00:00 13,9 12,8 11,9 20,2 19,2 8 4 21 11 W 1012,7 20 0 0,0
24.07.2017 05:00:00 14,3 12,8 12,4 20,2 19,2 8 5 23 12 WNW 1012,7 20 0 0,0
24.07.2017 04:00:00 14,7 13,2 13,2 20,3 19,2 9 5 25 14 WNW 1012,7 20 0 0,0
24.07.2017 03:00:00 15,0 13,5 13,3 20,4 19,2 11 6 24 13 WNW 1012,8 20 0 0,0
24.07.2017 02:00:00 15,3 14,0 14,5 20,5 19,2 7 4 21 12 WNW 1012,8 20 0 0,4
24.07.2017 01:00:00 15,4 14,1 14,5 20,6 19,2 6 3 16 9 NNW 1013,2 11 0 2,6
24.07.2017 00:00:00 15,7 14,1 14,5 20,6 19,2 7 4 15 8 NW 1013,7 10 0 1,4
23.07.2017 23:00:00 16,1 13,4 14,5 20,7 19,2 6 3 18 10 W 1013,9 14 0 0,4
23.07.2017 22:00:00 16,5 13,0 14,7 20,7 19,3 6 4 19 10 WSW 1014,2 20 0 0,2
23.07.2017 21:00:00 18,0 12,0 15,7 20,7 19,2 10 5 27 14 SW 1014,5 20 0 0,0
23.07.2017 20:00:00 19,2 10,2 18,5 20,7 19,2 9 5 35 19 W 1014,6 20 0 0,0
23.07.2017 19:00:00 20,0 11,0 19,8 20,7 19,2 15 8 37 20 WSW 1014,9 20 0 0,0
23.07.2017 18:00:00 20,8 9,4 21,3 20,7 19,2 18 10 43 23 WSW 1014,9 20 0 0,0
23.07.2017 17:00:00 21,5 9,4 23,0 20,5 19,2 17 9 38 21 WSW 1015,3 20 9 0,0
23.07.2017 16:00:00 21,7 9,9 23,2 20,5 19,2 14 8 36 20 WSW 1015,6 20 10 0,0
23.07.2017 15:00:00 20,5 9,7 22,4 20,4 19,2 17 9 37 20 WSW 1016,2 20 12 0,0
23.07.2017 14:00:00 20,1 11,0 20,6 20,2 19,2 13 7 40 21 WSW 1016,4 20 3 0,0
23.07.2017 13:00:00 19,1 10,4 20,7 20,2 19,2 19 11 41 22 W 1016,7 20 17 0,0
23.07.2017 12:00:00 20,1 11,8 20,4 20,1 19,2 18 10 41 22 WSW 1016,3 20 31 0,0
23.07.2017 11:00:00 18,1 11,2 19,1 20,1 19,2 16 9 36 20 W 1016,2 20 10 0,0
23.07.2017 10:00:00 16,7 11,8 16,1 20,2 19,2 14 7 36 20 WSW 1016,2 20 5 0,0
23.07.2017 09:00:00 15,3 11,7 14,7 20,3 19,2 16 9 49 26 SW 1016,1 20 4 0,0
23.07.2017 08:00:00 14,4 11,2 13,1 20,4 19,2 16 8 36 19 SW 1015,9 20 8 0,0
23.07.2017 07:00:00 13,8 10,8 12,1 20,5 19,2 10 5 34 19 WSW 1015,7 20 21 0,0
23.07.2017 06:00:00 13,8 10,4 12,4 20,6 19,3 14 8 42 23 WSW 1015,3 20 0 0,0
23.07.2017 05:00:00 14,2 10,4 12,1 20,7 19,2 19 10 38 20 SW 1015,1 20 0 0,0
23.07.2017 04:00:00 14,3 9,9 11,5 20,8 19,3 13 7 38 21 SW 1015,0 20 0 0,0
23.07.2017 03:00:00 14,2 10,4 10,5 21,0 19,2 14 7 28 15 SW 1014,9 20 0 0,0
23.07.2017 02:00:00 14,3 12,0 10,6 21,1 19,2 10 5 24 13 SW 1014,8 20 0 0,0
23.07.2017 01:00:00 15,0 12,3 12,1 21,2 19,2 8 4 17 9 SSW 1014,5 20 0 0,0
23.07.2017 00:00:00 15,3 12,6 10,9 21,3 19,2 7 4 12 7 S 1014,0 20 0 0,0
22.07.2017 23:00:00 15,5 11,5 11,9 21,4 19,2 4 2 11 6 W 1013,6 20 0 0,0
22.07.2017 22:00:00 16,4 11,5 14,1 21,4 19,2 6 4 40 22 WNW 1013,0 20 3 0,0
22.07.2017 21:00:00 17,9 10,5 15,1 21,4 19,2 19 10 42 23 NW 1012,3 20 5 0,0
22.07.2017 20:00:00 18,3 15,7 17,4 21,4 19,2 9 5 22 12 SSW 1011,3 15 0 1,0
22.07.2017 19:00:00 20,4 15,4 20,8 21,4 19,2 12 6 29 16 S 1011,1 20 0 0,0
22.07.2017 18:00:00 20,9 14,5 20,3 21,3 19,2 11 6 29 15 SSW 1011,6 20 14 0,0
22.07.2017 17:00:00 20,4 15,0 20,5 21,3 19,2 11 6 27 15 S 1011,6 20 0 0,0
22.07.2017 16:00:00 20,9 15,0 22,7 21,2 19,2 13 7 32 18 S 1011,9 20 11 0,0
22.07.2017 15:00:00 20,7 12,9 21,6 21,1 19,2 16 9 37 20 SW 1012,1 20 6 0,0
22.07.2017 14:00:00 20,5 13,5 20,2 21,1 19,2 12 7 37 20 SW 1012,3 20 0 0,0
22.07.2017 13:00:00 19,7 15,1 19,1 21,0 19,2 14 8 37 20 SW 1012,1 20 0 0,0
22.07.2017 12:00:00 18,7 15,6 19,2 21,0 19,2 14 7 35 19 SSW 1012,0 20 0 0,0
22.07.2017 11:00:00 17,8 16,7 16,9 21,1 19,3 11 6 37 20 SSW 1011,9 20 0 0,2
22.07.2017 10:00:00 16,7 15,4 15,8 21,1 19,2 12 7 33 18 SSW 1011,9 20 0 0,4
22.07.2017 09:00:00 16,6 14,6 15,4 21,1 19,2 15 8 42 23 SSW 1011,7 7 0 1,4
22.07.2017 08:00:00 17,5 13,0 - - - 15 8 31 17 SSW 1011,2 20 - -
22.07.2017 07:00:00 17,0 12,5 15,5 21,3 19,2 10 6 30 16 SSW 1011,0 20 22 0,0
22.07.2017 06:00:00 16,8 12,1 14,5 21,4 19,2 12 7 30 16 SSW 1010,8 20 0 0,0
22.07.2017 05:00:00 16,8 11,7 13,0 21,5 19,3 14 7 31 17 SSW 1010,7 20 0 0,0
22.07.2017 04:00:00 17,5 11,3 14,0 21,7 19,2 11 6 35 19 SW 1010,6 20 0 0,0
22.07.2017 03:00:00 18,1 10,2 14,3 21,8 19,2 10 5 35 19 SW 1010,5 20 0 0,0
22.07.2017 02:00:00 19,4 9,8 16,7 21,9 19,3 11 6 32 17 WSW 1010,3 20 0 0,0
22.07.2017 01:00:00 20,5 9,7 15,2 22,0 19,2 16 9 34 18 SW 1010,5 20 0 0,0
22.07.2017 00:00:00 19,8 9,7 15,1 22,1 19,2 6 3 11 6 S 1010,0 20 0 0,0
21.07.2017 23:00:00 21,0 9,9 16,3 22,2 19,2 4 2 9 5 S 1009,9 20 0 0,0
21.07.2017 22:00:00 20,6 9,5 15,1 22,2 19,2 4 2 17 9 WSW 1009,7 20 15 0,0
21.07.2017 21:00:00 22,3 9,1 19,8 22,2 19,2 9 5 27 15 WSW 1009,4 20 60 0,0
21.07.2017 20:00:00 23,7 10,0 22,4 22,2 19,2 11 6 33 18 SW 1009,6 20 40 0,0
21.07.2017 19:00:00 24,6 10,5 24,6 22,1 19,2 9 5 39 21 WSW 1009,7 20 37 0,0
21.07.2017 18:00:00 24,3 9,5 27,7 22,0 19,2 13 7 38 20 WSW 1009,8 20 56 0,0
21.07.2017 17:00:00 24,6 8,9 30,3 21,8 19,2 18 10 39 21 SW 1010,1 20 60 0,0
21.07.2017 16:00:00 25,0 10,1 32,3 21,6 19,2 15 8 39 21 SW 1010,6 20 60 0,0
21.07.2017 15:00:00 24,6 8,9 32,2 21,4 19,2 15 8 39 21 SSW 1011,1 20 60 0,0
21.07.2017 14:00:00 23,8 10,1 31,5 21,2 19,2 16 8 43 23 SW 1011,3 20 60 0,0
21.07.2017 13:00:00 23,1 10,8 29,5 21,0 19,2 13 7 38 20 SSW 1011,9 20 55 0,0
21.07.2017 12:00:00 22,9 12,5 28,4 20,9 19,2 11 6 34 18 S 1012,2 20 60 0,0
21.07.2017 11:00:00 21,4 10,8 28,3 20,9 19,2 12 7 27 14 SW 1012,5 20 60 0,0
21.07.2017 10:00:00 20,6 12,6 25,4 20,9 19,2 10 5 24 13 SSW 1012,9 20 60 0,0
21.07.2017 09:00:00 18,7 12,4 17,3 21,0 19,2 14 8 26 14 S 1012,9 20 53 0,0
21.07.2017 08:00:00 16,7 12,0 14,9 21,1 19,2 8 4 21 11 SSE 1013,0 20 0 0,0
21.07.2017 07:00:00 15,6 11,6 9,9 21,2 19,2 7 4 19 10 SSE 1013,4 20 0 0,0
21.07.2017 06:00:00 14,8 10,6 10,1 21,3 19,2 6 4 16 9 S 1013,7 20 0 0,0
21.07.2017 05:00:00 16,1 10,6 13,0 21,4 19,2 5 3 18 10 SSE 1013,7 20 0 0,0
21.07.2017 04:00:00 16,2 10,1 11,2 21,5 19,2 8 4 21 11 SSE 1014,1 20 0 0,0
21.07.2017 03:00:00 16,5 9,2 10,0 21,7 19,2 6 3 13 7 SE 1014,5 20 0 0,0
21.07.2017 02:00:00 16,6 9,0 10,1 21,8 19,2 3 2 7 4 NNE 1014,5 20 0 0,0
21.07.2017 01:00:00 17,2 8,6 11,6 21,9 19,2 3 1 9 5 WNW 1014,6 20 0 0,0
21.07.2017 00:00:00 17,8 8,4 - - - 5 3 15 8 W 1014,7 20 - 0,0
20.07.2017 23:00:00 18,6 8,8 13,5 22,2 19,2 4 2 16 9 NW 1014,7 20 0 0,0
20.07.2017 22:00:00 19,4 8,7 16,5 22,2 19,2 7 4 24 13 W 1014,5 20 0 0,0
20.07.2017 21:00:00 19,8 10,2 18,0 22,3 19,2 12 6 32 17 W 1014,1 20 3 0,0
20.07.2017 20:00:00 20,7 10,2 20,7 22,3 19,1 14 8 35 19 W 1014,0 20 52 0,0
20.07.2017 19:00:00 20,5 11,7 - - - 9 5 35 19 WNW 1014,0 20 - 0,0
20.07.2017 18:00:00 20,4 12,1 21,0 22,2 19,1 16 8 44 24 WNW 1013,9 20 25 0,0
20.07.2017 17:00:00 21,3 12,2 22,4 22,2 19,2 14 8 42 23 WNW 1013,5 20 13 0,0
20.07.2017 16:00:00 22,8 14,1 23,8 22,2 19,2 14 8 46 25 W 1013,0 20 36 0,0
20.07.2017 15:00:00 22,2 11,3 24,0 22,1 19,1 17 9 41 22 W 1012,7 20 17 0,0
20.07.2017 14:00:00 21,8 12,9 20,7 22,1 19,1 16 9 57 31 W 1012,4 20 12 0,0
20.07.2017 13:00:00 20,9 13,8 21,8 22,0 19,1 16 9 46 25 W 1012,1 20 13 0,0
20.07.2017 12:00:00 20,8 14,9 20,6 22,0 19,1 19 11 50 27 SW 1011,4 20 10 0,0
20.07.2017 11:00:00 19,9 14,0 18,1 22,1 19,1 21 11 47 26 SW 1011,2 20 0 0,0
20.07.2017 10:00:00 20,3 14,4 - - - 22 12 46 25 SW 1010,8 20 - 0,0
20.07.2017 09:00:00 19,8 15,0 18,4 22,2 19,1 20 11 45 25 SW 1010,5 20 31 0,0
20.07.2017 08:00:00 18,6 15,8 18,4 22,2 19,1 14 8 46 25 SW 1010,3 7 6 0,0
20.07.2017 07:00:00 18,4 15,6 16,5 22,3 19,1 13 7 35 19 SSW 1010,3 20 9 0,0
20.07.2017 06:00:00 18,6 15,5 16,7 22,5 19,1 14 7 36 20 SW 1010,1 20 0 0,0
20.07.2017 05:00:00 19,3 15,8 17,7 22,5 19,1 11 6 32 17 SW 1010,0 20 0 0,0
20.07.2017 04:00:00 20,1 16,1 18,8 22,6 19,1 11 6 36 20 SW 1010,1 20 0 0,0
20.07.2017 03:00:00 20,6 16,6 19,7 22,7 19,1 11 6 31 17 SW 1010,3 20 0 0,0
20.07.2017 02:00:00 21,0 16,6 19,2 22,8 19,1 12 7 31 17 SW 1010,7 20 0 0,0
20.07.2017 01:00:00 21,5 16,2 19,2 22,9 19,1 11 6 29 16 SW 1010,6 20 0 0,0
20.07.2017 00:00:00 22,1 16,1 19,4 23,0 19,1 10 5 23 13 SW 1009,9 20 0 0,0
19.07.2017 23:00:00 23,1 16,4 20,0 23,1 19,1 10 5 23 13 SW 1009,8 20 0 0,0
19.07.2017 22:00:00 23,9 16,7 21,5 23,1 19,1 10 5 30 16 WSW 1009,6 20 0 0,0
19.07.2017 21:00:00 24,7 17,2 23,2 23,1 19,0 14 8 33 18 SW 1009,2 20 5 0,0
19.07.2017 20:00:00 25,5 18,7 25,5 23,1 19,0 10 6 27 15 WSW 1008,8 20 13 0,0
19.07.2017 19:00:00 25,2 19,3 21,9 23,1 19,0 10 6 35 19 SW 1009,1 20 0 0,0
19.07.2017 18:00:00 24,9 18,8 22,7 23,1 19,1 16 9 44 24 SW 1009,2 20 0 0,2
19.07.2017 17:00:00 26,9 17,7 26,0 22,9 19,0 13 7 46 25 SW 1008,9 20 3 0,0
19.07.2017 16:00:00 28,1 17,6 28,3 22,8 19,0 16 9 46 25 SW 1009,0 20 23 0,0
19.07.2017 15:00:00 28,2 16,8 27,9 22,7 19,0 18 10 46 25 SW 1008,9 20 10 0,0
19.07.2017 14:00:00 28,2 19,4 25,3 22,6 19,0 13 7 47 25 SSW 1009,3 20 5 0,0
19.07.2017 13:00:00 28,1 17,0 29,0 22,5 19,0 18 10 40 22 SW 1009,5 20 6 0,0
19.07.2017 12:00:00 27,4 17,6 23,4 22,5 19,0 14 7 36 19 SSW 1009,5 20 27 0,0
19.07.2017 11:00:00 24,0 18,9 20,5 22,5 19,0 8 4 29 16 SSE 1009,5 20 0 0,2
19.07.2017 10:00:00 25,2 16,9 25,9 22,5 19,0 12 6 28 15 SSW 1009,2 20 16 0,0

tt = Température de l'air
td = dewpoint
tt 5cm = Température de l'air 5cm
tt -20cm = Température de l'air -20cm
tt -100cm = Température de l'air -100cm
ff = Vitesse du vent
fx = gusts
dd = Direction du vent
ppp = reduced air pressure
vv = visibility
sd = Ensoleillement
rr = Quantités de précipitations

stations d'obs. à proximité